Regional Weather Roundup
Issued by NWS

Home | Current Version | Previous Version | Text Only | Print | Product List | Glossary On
Versions: 1 2 3 4 5 6 7 8 9 10 11 12 13 14 15 16 17 18 19 20 21 22 23 24 25 26 27 28 29 30 31 32 33 34 35 36 37 38 39 40 41 42 43 44 45 46 47 48 49 50
000
ASUS44 KMEG 221310
RWRTN
TENNESSEE HOURLY STATE WEATHER ROUNDUP
NATIONAL WEATHER SERVICE MEMPHIS TN
700 AM CST THU FEB 22 2018

TNZ002-004-019-021-049-052-054-088>092-221400-
WEST TENNESSEE

CITY           SKY/WX    TMP DP  RH WIND       PRES   REMARKS
MEMPHIS INTL   DRZL/FOG  42  41  96 N8        30.30R VSB 1
NWS MEMPHIS      N/A     41 N/A N/A MISG        N/A
JACKSON        FOG       46  46 100 NW5       30.32R VSB 1/4
DYERSBURG      LGT RAIN  43  41  93 N8        30.34R FOG
COVINGTON      FOG       43  43 100 N6        30.33R VSB 1
UNION CITY     FOG       43  43 100 N8        30.32R VSB 3/4
BOLIVAR        FOG       48  46  93 NW8G14    30.29R VSB 3/4
PARIS          FOG       45  45 100 N9        30.29R VSB 1
HUNTINGDON     FOG       46  46 100 VRB5      30.29R VSB 3/4
LEXINGTON      CLOUDY    54  52  94 W5G13     30.29R
SAVANNAH       CLOUDY    63  61  94 S9G16     30.25R
$$

TNZ008-025-027-028-033-062-065-066-221400-
NORTH MIDDLE TENNESSEE

CITY           SKY/WX    TMP DP  RH WIND       PRES   REMARKS
NASHVILLE      LGT RAIN  58  56  93 SE15      30.23F FOG
PORTLAND       CLEAR     54  54 100 SE12      30.24F
CLARKSVILLE    CLOUDY    49  46  90 N8        30.30R
SMYRNA         LGT RAIN  57  57 100 SE10      30.27F FOG
COOKEVILLE     CLOUDY    63  61  94 S8        30.34S
GALLATIN       CLOUDY    54  54 100 CALM      30.29F
CROSSVILLE     LGT RAIN  63  60  90 SW9       30.39R FOG
$$

TNZ061-075-076-078-094-096-097-221400-
SOUTH MIDDLE TENNESSEE

CITY           SKY/WX    TMP DP  RH WIND       PRES   REMARKS
FAYETTEVILLE   CLOUDY    63  63 100 S6        30.35S
TULLAHOMA      CLOUDY    63  61  94 S7        30.36R FOG
WINCHESTER     MOCLDY    63  61  94 SW8       30.39R
MCMINNVILLE    CLOUDY    63  61  94 S7        30.35R
COLUMBIA       MOCLDY    63  63 100 S12       30.25F
SHELBYVILLE    MOCLDY    63  61  94 S10G17    30.32F FOG
$$

TNZ017-018-042-046-047-221400-
NORTHEAST TENNESSEE

CITY           SKY/WX    TMP DP  RH WIND       PRES   REMARKS
TRI CITIES     FAIR      58  57  97 CALM      30.38R
ELIZABETHTON   FAIR      61  55  82 CALM      30.39R
$$

TNZ012-013-036-069-073-074-221400-
CENTRAL EAST TENNESSEE

CITY           SKY/WX    TMP DP  RH WIND       PRES   REMARKS
KNOXVILLE      FAIR      65  61  87 SW13      30.36R
OAK RIDGE      CLOUDY    68  64  87 VRB6      30.38R
DOWNTOWN KNOXV CLEAR     68  61  77 W6        30.37R
GATLINBURG     PTCLDY    57  54  88 CALM      30.37R
MORRISTOWN     MOCLDY    57  55  94 CALM      30.37R
JACKSBORO      CLOUDY    72  59  64 SW18G25   30.38R
$$

TNZ083-085-099-221400-
SOUTHEAST TENNESSEE

CITY           SKY/WX    TMP DP  RH WIND       PRES   REMARKS
CHATTANOOGA    MOCLDY    64  61  90 CALM      30.39R
$$

SKY/WX REPORTED AS FAIR MEANS FEW OR NO CLOUDS BELOW
12 THOUSAND FEET.





USA.gov is the U.S. government's official web portal to all federal, state and local government web resources and services.